Time,TemperatureF,DewpointF,PressureIn,WindDirection,WindDirectionDegrees,WindSpeedMPH,WindSpeedGustMPH,Humidity,HourlyPrecipIn,Conditions,Clouds,dailyrainin,SolarRadiationWatts/m^2,SoftwareType,DateUTC
2013-05-18 00:02:00,49.0,49.0,-100.00,North,0,0.0,0.0,100,-99.99,,,0.01,0.230000,,2013-05-18 06:02:00,
2013-05-18 00:11:00,49.0,49.0,-100.00,North,0,0.0,0.0,100,-99.99,,,0.01,0.230000,,2013-05-18 06:11:00,
2013-05-18 00:42:00,49.0,49.0,-100.00,North,0,0.0,0.0,100,-99.99,,,0.01,0.230000,,2013-05-18 06:42:00,
2013-05-18 00:52:00,49.0,49.0,-100.00,North,0,0.0,0.0,100,-99.99,,,0.01,0.230000,,2013-05-18 06:52:00,
2013-05-18 01:01:00,49.0,49.0,-100.00,North,0,0.0,0.0,100,-99.99,,,0.01,0.230000,,2013-05-18 07:01:00,
2013-05-18 01:11:00,49.0,49.0,-100.00,North,0,0.0,0.0,100,-99.99,,,0.01,0.230000,,2013-05-18 07:11:00,
2013-05-18 01:42:00,48.0,48.0,-100.00,SSE,163,1.0,3.0,100,-99.99,,,0.01,0.230000,,2013-05-18 07:42:00,
2013-05-18 01:52:00,48.0,48.0,-100.00,SSE,163,1.0,3.0,100,-99.99,,,0.01,0.230000,,2013-05-18 07:52:00,
2013-05-18 02:01:00,48.0,48.0,-100.00,SSE,163,1.0,3.0,100,-99.99,,,0.01,0.230000,,2013-05-18 08:01:00,
2013-05-18 02:11:00,48.0,48.0,-100.00,SSE,163,1.0,3.0,100,-99.99,,,0.01,0.230000,,2013-05-18 08:11:00,
2013-05-18 02:42:00,47.0,47.0,-100.00,North,0,0.0,0.0,100,-99.99,,,0.01,0.230000,,2013-05-18 08:42:00,
2013-05-18 02:52:00,47.0,47.0,-100.00,North,0,0.0,0.0,100,-99.99,,,0.01,0.230000,,2013-05-18 08:52:00,
2013-05-18 03:02:00,47.0,47.0,-100.00,North,0,0.0,0.0,100,-99.99,,,0.01,0.230000,,2013-05-18 09:02:00,
2013-05-18 03:11:00,47.0,47.0,-100.00,North,0,0.0,0.0,100,-99.99,,,0.01,0.230000,,2013-05-18 09:11:00,
2013-05-18 03:43:00,47.0,47.0,-100.00,North,0,0.0,0.0,100,-99.99,,,0.01,0.230000,,2013-05-18 09:43:00,
2013-05-18 03:53:00,47.0,47.0,-100.00,North,0,0.0,0.0,100,-99.99,,,0.01,0.230000,,2013-05-18 09:53:00,
2013-05-18 04:02:00,47.0,47.0,-100.00,North,0,0.0,0.0,100,-99.99,,,0.01,0.230000,,2013-05-18 10:02:00,
2013-05-18 04:12:00,47.0,47.0,-100.00,North,0,0.0,0.0,100,-99.99,,,0.01,0.230000,,2013-05-18 10:12:00,
2013-05-18 04:42:00,47.0,46.0,-100.00,South,174,1.0,4.0,98,-99.99,,,0.01,0.230000,,2013-05-18 10:42:00,
2013-05-18 04:52:00,47.0,46.0,-100.00,South,174,1.0,4.0,98,-99.99,,,0.01,0.230000,,2013-05-18 10:52:00,
2013-05-18 05:02:00,47.0,46.0,-100.00,South,174,1.0,4.0,98,-99.99,,,0.01,0.230000,,2013-05-18 11:02:00,
2013-05-18 05:12:00,47.0,46.0,-100.00,South,174,1.0,4.0,98,-99.99,,,0.01,0.230000,,2013-05-18 11:12:00,
2013-05-18 05:42:00,46.0,46.0,-100.00,North,0,0.0,0.0,99,-99.99,,,0.01,0.230000,,2013-05-18 11:42:00,
2013-05-18 05:52:00,46.0,46.0,-100.00,North,0,0.0,0.0,99,-99.99,,,0.01,0.230000,,2013-05-18 11:52:00,
2013-05-18 06:01:00,46.0,46.0,-100.00,North,0,0.0,0.0,99,-99.99,,,0.01,0.230000,,2013-05-18 12:01:00,
2013-05-18 06:12:00,46.0,46.0,-100.00,North,0,0.0,0.0,99,-99.99,,,0.01,0.230000,,2013-05-18 12:12:00,
2013-05-18 06:42:00,46.0,46.0,-100.00,North,0,0.0,0.0,100,-99.99,,,-99.99,2.910000,,2013-05-18 12:42:00,
2013-05-18 06:52:00,46.0,46.0,-100.00,North,0,0.0,0.0,100,-99.99,,,-99.99,2.910000,,2013-05-18 12:52:00,
2013-05-18 07:01:00,46.0,46.0,-100.00,North,0,0.0,0.0,100,-99.99,,,-99.99,2.910000,,2013-05-18 13:01:00,
2013-05-18 07:11:00,46.0,46.0,-100.00,North,0,0.0,0.0,100,-99.99,,,-99.99,2.910000,,2013-05-18 13:11:00,
2013-05-18 07:43:00,46.0,46.0,-100.00,North,0,0.0,0.0,100,-99.99,,,0.01,34.750000,,2013-05-18 13:43:00,
2013-05-18 07:52:00,46.0,46.0,-100.00,North,0,0.0,0.0,100,-99.99,,,0.01,34.750000,,2013-05-18 13:52:00,
2013-05-18 08:03:00,46.0,46.0,-100.00,North,0,0.0,0.0,100,-99.99,,,0.01,34.750000,,2013-05-18 14:03:00,
2013-05-18 08:12:00,46.0,46.0,-100.00,North,0,0.0,0.0,100,-99.99,,,0.01,34.750000,,2013-05-18 14:12:00,
2013-05-18 08:42:00,47.0,47.0,-100.00,SSE,150,2.0,5.0,98,-99.99,,,0.01,106.809998,,2013-05-18 14:42:00,
2013-05-18 08:54:00,47.0,47.0,-100.00,SSE,150,2.0,5.0,98,-99.99,,,0.01,106.809998,,2013-05-18 14:54:00,
2013-05-18 09:03:00,47.0,47.0,-100.00,SSE,150,2.0,5.0,98,-99.99,,,0.01,106.809998,,2013-05-18 15:03:00,
2013-05-18 09:13:00,47.0,47.0,-100.00,SSE,150,2.0,5.0,98,-99.99,,,0.01,106.809998,,2013-05-18 15:13:00,
2013-05-18 09:43:00,48.0,47.0,-100.00,SSE,167,1.0,4.0,94,-99.99,,,0.01,136.669998,,2013-05-18 15:43:00,
2013-05-18 09:53:00,48.0,47.0,-100.00,SSE,167,1.0,4.0,94,-99.99,,,0.01,136.669998,,2013-05-18 15:53:00,
2013-05-18 10:02:00,48.0,47.0,-100.00,SSE,167,1.0,4.0,94,-99.99,,,0.01,136.669998,,2013-05-18 16:02:00,
2013-05-18 10:12:00,48.0,47.0,-100.00,SSE,167,1.0,4.0,94,-99.99,,,0.01,136.669998,,2013-05-18 16:12:00,
2013-05-18 10:42:00,50.0,47.0,-100.00,SW,228,1.0,3.0,88,-99.99,,,0.01,229.770004,,2013-05-18 16:42:00,
2013-05-18 10:52:00,50.0,47.0,-100.00,SW,228,1.0,3.0,88,-99.99,,,0.01,229.770004,,2013-05-18 16:52:00,
2013-05-18 11:02:00,50.0,47.0,-100.00,SW,228,1.0,3.0,88,-99.99,,,0.01,229.770004,,2013-05-18 17:02:00,
2013-05-18 11:12:00,50.0,47.0,-100.00,SW,228,1.0,3.0,88,-99.99,,,0.01,229.770004,,2013-05-18 17:12:00,
2013-05-18 11:42:00,55.0,49.0,-100.00,NW,319,2.0,5.0,79,-99.99,,,0.01,642.119995,,2013-05-18 17:42:00,
2013-05-18 11:52:00,55.0,49.0,-100.00,NW,319,2.0,5.0,79,-99.99,,,0.01,642.119995,,2013-05-18 17:52:00,
2013-05-18 12:01:00,55.0,49.0,-100.00,NW,319,2.0,5.0,79,-99.99,,,0.01,642.119995,,2013-05-18 18:01:00,
2013-05-18 12:12:00,55.0,49.0,-100.00,NW,319,2.0,5.0,79,-99.99,,,0.01,642.119995,,2013-05-18 18:12:00,
2013-05-18 12:42:00,58.0,49.0,-100.00,North,349,3.0,9.0,71,-99.99,,,0.00,927.440002,,2013-05-18 18:42:00,
2013-05-18 12:52:00,58.0,49.0,-100.00,North,349,3.0,9.0,71,-99.99,,,0.00,927.440002,,2013-05-18 18:52:00,
2013-05-18 13:02:00,58.0,49.0,-100.00,North,349,3.0,9.0,71,-99.99,,,0.00,927.440002,,2013-05-18 19:02:00,
2013-05-18 13:11:00,58.0,49.0,-100.00,North,349,3.0,9.0,71,-99.99,,,0.00,927.440002,,2013-05-18 19:11:00,
2013-05-18 13:42:00,61.0,46.0,-100.00,NNW,335,2.0,8.0,57,-99.99,,,0.00,1020.409973,,2013-05-18 19:42:00,
2013-05-18 13:52:00,61.0,46.0,-100.00,NNW,335,2.0,8.0,57,-99.99,,,0.00,1020.409973,,2013-05-18 19:52:00,
2013-05-18 14:01:00,61.0,46.0,-100.00,NNW,335,2.0,8.0,57,-99.99,,,0.00,1020.409973,,2013-05-18 20:01:00,
2013-05-18 14:11:00,61.0,46.0,-100.00,NNW,335,2.0,8.0,57,-99.99,,,0.00,1020.409973,,2013-05-18 20:11:00,
2013-05-18 14:42:00,59.0,44.0,-100.00,NW,317,2.0,6.0,57,-99.99,,,0.00,559.250000,,2013-05-18 20:42:00,
2013-05-18 14:52:00,59.0,44.0,-100.00,NW,317,2.0,6.0,57,-99.99,,,0.00,559.250000,,2013-05-18 20:52:00,
2013-05-18 15:01:00,59.0,44.0,-100.00,NW,317,2.0,6.0,57,-99.99,,,0.00,559.250000,,2013-05-18 21:01:00,
2013-05-18 15:11:00,59.0,44.0,-100.00,NW,317,2.0,6.0,57,-99.99,,,0.00,559.250000,,2013-05-18 21:11:00,
2013-05-18 15:43:00,60.0,45.0,-100.00,NW,311,3.0,8.0,56,-99.99,,,0.00,440.130005,,2013-05-18 21:43:00,
2013-05-18 15:53:00,60.0,45.0,-100.00,NW,311,3.0,8.0,56,-99.99,,,0.00,440.130005,,2013-05-18 21:53:00,
2013-05-18 16:03:00,60.0,45.0,-100.00,NW,311,3.0,8.0,56,-99.99,,,0.00,440.130005,,2013-05-18 22:03:00,
2013-05-18 16:12:00,60.0,45.0,-100.00,NW,311,3.0,8.0,56,-99.99,,,0.00,440.130005,,2013-05-18 22:12:00,
2013-05-18 16:42:00,61.0,42.0,-100.00,NNW,344,2.0,4.0,50,-99.99,,,0.00,330.179993,,2013-05-18 22:42:00,
2013-05-18 16:52:00,61.0,42.0,-100.00,NNW,344,2.0,4.0,50,-99.99,,,0.00,330.179993,,2013-05-18 22:52:00,
2013-05-18 17:01:00,61.0,42.0,-100.00,NNW,344,2.0,4.0,50,-99.99,,,0.00,330.179993,,2013-05-18 23:01:00,
2013-05-18 17:11:00,61.0,42.0,-100.00,NNW,344,2.0,4.0,50,-99.99,,,0.00,330.179993,,2013-05-18 23:11:00,
2013-05-18 17:41:00,61.0,42.0,-100.00,WNW,295,9.0,18.0,48,-99.99,,,0.00,636.539978,,2013-05-18 23:41:00,
2013-05-18 17:53:00,61.0,42.0,-100.00,WNW,295,9.0,18.0,48,-99.99,,,0.00,636.539978,,2013-05-18 23:53:00,
2013-05-18 18:01:00,61.0,42.0,-100.00,WNW,295,9.0,18.0,48,-99.99,,,0.00,636.539978,,2013-05-19 00:01:00,
2013-05-18 18:11:00,61.0,42.0,-100.00,WNW,295,9.0,18.0,48,-99.99,,,0.00,636.539978,,2013-05-19 00:11:00,
2013-05-18 19:42:00,58.0,39.0,-100.00,WNW,297,9.0,19.0,49,-99.99,,,0.00,297.519989,,2013-05-19 01:42:00,
2013-05-18 19:52:00,58.0,39.0,-100.00,WNW,297,9.0,19.0,49,-99.99,,,0.00,297.519989,,2013-05-19 01:52:00,
2013-05-18 20:01:00,58.0,39.0,-100.00,WNW,297,9.0,19.0,49,-99.99,,,0.00,297.519989,,2013-05-19 02:01:00,
2013-05-18 20:11:00,58.0,39.0,-100.00,WNW,297,9.0,19.0,49,-99.99,,,0.00,297.519989,,2013-05-19 02:11:00,
2013-05-18 20:42:00,53.0,39.0,-100.00,NW,304,3.0,12.0,58,-99.99,,,0.00,34.169998,,2013-05-19 02:42:00,
2013-05-18 20:52:00,53.0,39.0,-100.00,NW,304,3.0,12.0,58,-99.99,,,0.00,34.169998,,2013-05-19 02:52:00,
2013-05-18 21:01:00,53.0,39.0,-100.00,NW,304,3.0,12.0,58,-99.99,,,0.00,34.169998,,2013-05-19 03:01:00,
2013-05-18 21:11:00,53.0,39.0,-100.00,NW,304,3.0,12.0,58,-99.99,,,0.00,34.169998,,2013-05-19 03:11:00,
2013-05-18 21:42:00,53.0,39.0,-100.00,WNW,299,4.0,10.0,59,-99.99,,,0.00,2.090000,,2013-05-19 03:42:00,
2013-05-18 21:53:00,53.0,39.0,-100.00,WNW,299,4.0,10.0,59,-99.99,,,0.00,2.090000,,2013-05-19 03:53:00,
2013-05-18 22:02:00,53.0,39.0,-100.00,WNW,299,4.0,10.0,59,-99.99,,,0.00,2.090000,,2013-05-19 04:02:00,
2013-05-18 22:12:00,53.0,39.0,-100.00,WNW,299,4.0,10.0,59,-99.99,,,0.00,2.090000,,2013-05-19 04:12:00,
2013-05-18 22:42:00,51.0,40.0,-100.00,North,359,1.0,5.0,64,-99.99,,,0.00,0.000000,,2013-05-19 04:42:00,
2013-05-18 22:52:00,51.0,40.0,-100.00,North,359,1.0,5.0,64,-99.99,,,0.00,0.000000,,2013-05-19 04:52:00,
2013-05-18 23:02:00,51.0,40.0,-100.00,North,359,1.0,5.0,64,-99.99,,,0.00,0.000000,,2013-05-19 05:02:00,
2013-05-18 23:12:00,51.0,40.0,-100.00,North,359,1.0,5.0,64,-99.99,,,0.00,0.000000,,2013-05-19 05:12:00,
2013-05-18 23:42:00,51.0,40.0,-100.00,NNW,328,1.0,4.0,67,-99.99,,,-99.99,0.000000,,2013-05-19 05:42:00,
2013-05-18 23:52:00,51.0,40.0,-100.00,NNW,328,1.0,4.0,67,-99.99,,,-99.99,0.000000,,2013-05-19 05:52:00,